Regional Weather Roundup
Issued by NWS

Home | Current Version | Previous Version | Text Only | Print | Product List | Glossary On
Versions: 1 2 3 4 5 6 7 8 9 10 11 12 13 14 15 16 17 18 19 20 21 22 23 24 25 26 27 28 29 30 31 32 33 34 35 36 37 38 39 40 41 42 43 44 45 46 47 48 49 50
000
ASUS43 KDMX 160201
RWRIA

WEATHER ROUNDUP FOR IOWA
NATIONAL WEATHER SERVICE DES MOINES IA
800 PM CST SUN JAN 15 2017

NOTE: "FAIR" INDICATES FEW OR NO CLOUDS BELOW 12,000 FEET WITH NO
SIGNIFICANT WEATHER AND/OR OBSTRUCTIONS TO VISIBILITY.

* - THESE STATIONS ARE NOT NWS STATIONS...THUS NOT UNDER NWS
QUALITY CONTROL.  THEY ALSO DO NOT REPORT WEATHER SUCH
AS PRECIPITATION OR FOG.

IAZ001>003-012>014-020>022-031>034-043>046-160300-
   NORTHWEST IOWA

CITY           SKY/WX    TMP DP  RH WIND       PRES   REMARKS
CARROLL *      MIX PCPN  32  32 100 SE8       30.19S WCI  25
CHEROKEE *     CLOUDY    27  22  80 E7        30.18F WCI  19
DENISON *      CLOUDY    32  30  93 SE6       30.16S FOG     WCI  26
LE MARS *      CLOUDY    28  16  59 CALM      30.18F
ORANGE CITY *  CLOUDY    27  18  69 E5        30.16F WCI  21
SHELDON *      CLOUDY    27  19  74 SE5       30.16F WCI  21
SIOUX CITY     CLOUDY    32  21  64 SE6       30.17F WCI  26
SPENCER        CLOUDY    23  18  81 SE7       30.19F WCI  15
STORM LAKE *   CLOUDY    28  23  80 SE7       30.17F WCI  21
$$

IAZ055>058-069>071-079>083-090>094-160300-
   SOUTHWEST IOWA

CITY           SKY/WX    TMP DP  RH WIND       PRES   REMARKS
ATLANTIC *     MIX PCPN  32  30  93 E8        30.18F WCI  25
AUDUBON *      MIX PCPN  30  28  93 SE5       30.19S WCI  25
CLARINDA *     CLOUDY    32  32 100 E5        30.20F WCI  27
COUNCIL BLFS * CLOUDY    32  32 100 SE7       30.16F FOG     WCI  26
CRESTON *      MIX PCPN  30  30 100 E8        30.19F WCI  23
HARLAN  *      CLOUDY    32  32 100 SE6       30.20F FOG     WCI  26
LAMONI         FRZ RAIN  31  29  92 E7        30.18F FOG     WCI  24
RED OAK *      CLOUDY    32  32 100 E5        30.18F WCI  27
SHENANDOAH *   CLOUDY    32  32 100 E7        30.18F FOG     WCI  26
$$

IAZ047>049-059>061-072>074-084-160300-
   CENTRAL IOWA

CITY           SKY/WX    TMP DP  RH WIND       PRES   REMARKS
AMES           CLOUDY    31  22  69 SE7       30.23S WCI  24
ANKENY *       MIX PCPN  30  25  80 SE6       30.24S WCI  24
BOONE *        CLOUDY    30  23  74 SE8       30.21S WCI  23
CHARITON *     CLOUDY    30  28  93 SE7       30.21F FOG     WCI  23
DES MOINES     FRZ RAIN  31  26  82 SE8       30.23S WCI  23
GRINNELL*      CLOUDY    31  19  62 E8        30.24S WCI  23
KNOXVILLE *    CLOUDY    30  27  86 SE6       30.22S FOG     WCI  24
MARSHALLTOWN   PTCLDY    29  19  66 SE7       30.23F WCI  22
NEWTON *       CLOUDY    32  19  59 SE7       30.23S WCI  26
PELLA *        MIX PCPN  30  26  85 E6        30.25F WCI  24
PERRY *        RAIN      31  28  88 SE6       30.21S WCI  25
$$

IAZ004>006-015-016-023>025-035-036-160300-
   NORTH CENTRAL IOWA

CITY           SKY/WX    TMP DP  RH WIND       PRES   REMARKS
ALGONA *       PTCLDY    27  21  80 S7        30.21S WCI  19
CLARION *      CLOUDY    27  25  93 SE6       30.22F WCI  20
ESTHERVILLE    CLOUDY    23  20  88 S7        30.20S WCI  15
FORT DODGE *   CLOUDY    27  19  74 E6        30.22F WCI  20
MASON CITY     CLOUDY    19  16  88 CALM      30.25R
FOREST CITY *    N/A     19  18  93 CALM      30.23S
WEBSTER CITY * CLOUDY    27  25  93 E6        30.20F WCI  20
IOWA FALLS *     N/A     29  24  81 CALM      30.24S
$$

IAZ007>011-017>019-026>030-037>042-050>054-066-160300-
   NORTHEAST IOWA

CITY           SKY/WX    TMP DP  RH WIND       PRES   REMARKS
CEDAR RAPIDS   CLOUDY    29  15  56 SE5       30.25F WCI  24
CHARLES CITY * CLOUDY    21  19  93 E7        30.26R WCI  13
CLINTON *      CLOUDY    27  20  75 E7        30.30F WCI  19
DECORAH *      CLOUDY    21  16  79 S6        30.25S WCI  14
DUBUQUE        CLOUDY    26  18  71 SE3       30.28S
MONTICELLO *   CLOUDY    28  18  64 SE5       30.28S WCI  23
OELWEIN *      CLOUDY    25  23  93 E3        30.26S
WATERLOO       CLOUDY    28  18  66 SE5       30.26S WCI  23
$$

IAZ064-065-067-068-078-160300-
   EAST CENTRAL IOWA

CITY           SKY/WX    TMP DP  RH WIND       PRES   REMARKS
DAVENPORT      CLOUDY    30  19  63 SE7       30.29F WCI  23
IOWA CITY      CLOUDY    32  17  54 SE6       30.29F WCI  26
MUSCATINE *    CLOUDY    34  19  55 E6        30.29F WCI  29
QUAD CITIES    CLOUDY    31  22  69 E3        30.29F
$$

IAZ062-063-075>077-085>089-095>099-160300-
   SOUTHEAST IOWA

CITY           SKY/WX    TMP DP  RH WIND       PRES   REMARKS
BURLINGTON     CLOUDY    32  27  81 E7        30.26F WCI  26
FAIRFIELD *    CLOUDY    30  25  80 E7        30.25S WCI  23
FORT MADISON * CLOUDY    32  27  80 E6        30.27F WCI  26
KEOKUK *       CLOUDY    32  30  93 E7        30.25F WCI  26
OSKALOOSA *    MIX PCPN  30  26  86 E7        30.25S WCI  23
CENTERVILLE *  LGT RAIN  28  28 100 CALM      30.23F
OTTUMWA        CLOUDY    30  24  78 E6        30.24S WCI  24
WASHINGTON *   CLOUDY    30  23  74 E7        30.27F WCI  23
$$

ABBREVIATIONS USED IN REMARKS
   TC - TEMPERATURES IN CELSIUS
  WCI - WIND CHILL INDEX
   HX - HEAT INDEX
  VSB - VISIBILITY
$$





USA.gov is the U.S. government's official web portal to all federal, state and local government web resources and services.